DELTA 1 DEB, 27728

Orbit data source: Space-Track

DELTA 1 DEB, 27728 is space debris in LEO originally from a launch on Thu, 29 Jul 1976 UTC launched from the Air Force Western Test Range (AFWTR). Debris objects in space refer to the collection of defunct objects orbiting the Earth. Examples of debris include non-operational satellites, rocket bodies, and fragments generated from explosions, collisions, or faulty payload assembly.

Loading next visibility...
Identifier
27728, 1976-077FT
Orbit
LEO
Country
Flag of USUS
Related business
Manufacturer
Unknown
Mission
Spacecraft
Bus & Motor
Unknown
Mass
Unknown
Launch date (UTC)
1976-07-29 (50 years ago)
Launch vehicle
Unknown
Launch site
Air Force Western Test Range (AFWTR)
Object type
Payload
Rocket body
Debris
Shape & HBR
Unknown shape, 0.1 m
Radar Cross Section
Small (<0.1 m²)

Expand to show TLE details & history
Last TLE update: 23 hours ago

TLE from 23 hours ago
0 DELTA 1 DEB
1 27728U 76077FT  26062.28485159  .00000761  00000-0  99519-2 0  9990
2 27728 102.4297 178.0402 0356214 350.4061  36.0081 11.85539920413734
Epoch: 2026-03-03T06:50Z
TLE epoch observation values (Epoch: 2026-03-03T06:50:11.177Z)
Latitude
28.2067°
Longitude
-92.32809°
Altitude
1,518.93 km
Speed
7.208 km/s
True Right ascension
11h 25m 08s
True Declination
28° 04' 39"
Sunlit
Object was in full shadow at epoch
Visualization orbit readout
Latitude
Unknown
Longitude
Unknown
Altitude
Unknown
Speed
Unknown
Apparent Right ascension
Unknown
Apparent Declination
Unknown
Sunlit
N/A
Visualization observer readout
Local Sidereal Time
10:05:16
Azimuth
Unknown
Elevation
Unknown
Doppler factor
Unknown
Orbital elements
Apogee altitude
2,033.245 km
Perigee altitude
1,454.606 km
Semi-major axis
8,122.063 km
Eccentricity
0.03562
Inclination
102.4297°
RAAN
178.0402°
Arg. of periapsis
350.4061°
True anomaly
38.49659°
Mean anomaly
36.0081°
Eccentric anomaly
37.24329°
Mean motion
2.96513 °/min
Orbital period
121.41 mins
BSTAR
0.0099519
Loading maneuver chart data...
Computing Atmospheric mass density...
Loading historical data...
Loading historical data...
Loading historical data...
Loading historical data...
Loading historical data...
Loading historical data...
Loading historical data...

Documentation

Showing up to 5 results
|